Tracking 25703 objects as of 2-Jul-2022
HD Live streaming from Space Station
objects crossing your sky now

INTELSAT 6B (PAS 6B)

Track INTELSAT 6B (PAS 6B) now!
INTELSAT 6B (PAS 6B) is classified as:


NORAD ID: 25585
Int'l Code: 1998-075A
Perigee: 36,032.3 km
Apogee: 36,185.9 km
Inclination: 10.1 °
Period: 1,452.2 minutes
Semi major axis: 42480 km
RCS: 21.1435 m2 (large)
Launch date: December 22, 1998
Source: United States (US)
Launch site: FRENCH GUIANA (FRGUI)

voice and video communcations; 32 Ku-band; South America.
aabbcc
Your satellite tracking list
Your tracking list is empty




NASA's NSSDC Master Catalog

Two Line Element Set (TLE):
1 25585U 98075A   22182.44441806 -.00000273  00000-0  00000-0 0  9993
2 25585  10.0594  40.5113 0018087 112.3310  85.1619  0.99157241 85646
Source of the keplerian elements: AFSPC